Theta_e
305 306 306 307 307 306 307 309 309 312 313 313 316 320 325 328 328 332 336 335 340 344 342 343 334 336 332 328 326 324 321 318
305 305 305 306 305 303 303 304 308 310 312 312 313 311 325 327 329 330 333 336 336 339 340 332 326 322 319 315 312 313 311 308
303 303 304 303 303 303 302 304 306 308 309 312 312 314 323 325 326 327 331 334 335 337 333 327 324 319 314 311 308 306 306 303
302 302 301 301 300 301 301 302 304 307 307 309 313 315 320 321 322 325 328 331 335 332 329 324 318 317 308 309 309 305 304 302
300 300 300 300 300 301 301 304 305 305 306 309 312 311 316 317 319 322 325 330 335 329 323 318 312 308 303 304 305 304 302 301
300 299 298 299 300 301 303 304 306 305 306 309 310 310 315 317 317 320 328 326 323 319 312 308 306 304 302 301 302 301 300 299
298 298 298 299 300 300 301 301 302 303 306 309 309 310 313 314 315 323 318 312 310 308 306 304 302 301 300 300 301 299 299 298
297 298 298 299 298 299 299 299 299 300 304 308 310 310 315 315 318 312 310 308 306 305 303 302 302 302 298 300 301 300 297 295
297 297 294 295 297 297 296 296 297 301 307 309 311 310 316 313 310 308 306 304 303 301 301 301 301 301 300 298 297 297 295 294
294 293 292 294 295 295 294 295 299 302 306 308 310 312 311 308 306 304 302 302 300 299 297 295 296 298 296 295 294 294 295 292
292 291 291 291 292 293 293 296 300 302 306 309 310 308 306 304 302 300 299 298 296 295 293 292 292 294 293 293 293 293 294 291
291 289 287 288 293 296 297 299 301 302 305 304 303 300 299 300 300 299 298 296 294 293 292 291 292 292 292 292 292 292 293 292
288 288 292 294 295 296 300 301 302 298 298 298 298 298 297 295 295 296 295 295 295 292 292 292 291 289 290 289 291 293 294 294
291 293 293 294 298 301 300 298 295 293 292 292 292 292 292 291 289 288 291 292 292 292 292 292 291 291 291 291 291 291 291 291
291 293 294 294 293 293 295 295 294 292 291 291 291 291 290 289 289 288 286 289 290 290 290 290 290 290 290 290 290 290 290 292
293 294 294 294 293 293 294 294 294 293 292 292 291 290 290 290 290 290 289 287 286 286 290 290 290 290 289 289 289 292 295 296
294 294 294 294 293 293 295 294 293 292 292 291 292 292 292 291 290 289 288 288 287 287 289 291 291 289 289 289 291 295 294 294
291 291 292 293 293 295 296 295 293 292 292 291 290 290 289 289 289 288 287 287 288 288 289 290 290 290 294 294 295 295 295 295
293 293 293 293 293 295 295 294 293 292 291 290 290 289 288 288 287 287 287 288 289 290 291 291 288 294 294 294 294 295 295 295
293 293 293 294 295 295 295 295 294 294 293 292 291 289 290 289 289 290 291 292 292 293 293 291 288 295 294 294 294 294 295 295
Wind_Speed
17 17 17 14 15 16 17 18 20 18 16 19 8 13 9 7 9 10 9 9 9 10 8 5 4 5 7 10 3 9 8 11
17 17 16 13 13 14 15 16 18 18 17 15 16 9 8 6 9 10 10 8 9 8 5 9 10 13 15 16 16 13 9 11
20 17 14 16 18 16 14 14 15 16 17 16 16 9 9 5 7 10 10 8 8 8 11 11 11 14 12 18 18 16 15 12
21 17 18 17 17 17 14 15 15 15 17 17 14 14 8 5 7 12 10 9 6 12 11 12 11 7 11 9 15 21 16 16
14 14 17 16 16 16 17 16 15 15 16 17 15 14 10 8 10 11 11 7 4 11 11 11 12 13 14 17 21 13 15 15
17 18 18 17 17 16 17 15 11 13 16 17 14 12 12 9 10 10 2 4 6 11 13 13 15 12 20 22 21 16 14 12
17 17 18 20 17 16 15 15 13 13 14 16 13 11 12 10 10 3 8 9 10 11 12 14 16 14 21 23 19 16 14 13
18 18 19 14 18 16 15 12 13 13 14 15 13 10 12 9 4 12 10 11 13 11 15 14 19 15 15 18 15 13 14 11
19 15 17 17 15 14 13 12 13 13 12 14 8 12 6 12 13 12 14 14 16 15 16 15 15 14 13 18 12 12 11 10
18 16 16 16 15 12 13 13 11 9 10 10 12 6 10 11 15 12 15 16 18 16 17 14 10 13 16 24 15 21 12 8
16 15 17 16 15 13 12 12 9 9 10 9 9 12 12 14 16 15 13 14 15 14 14 14 13 11 14 28 21 17 12 9
15 15 16 17 15 13 12 10 8 9 10 13 14 15 14 12 10 10 12 12 13 14 14 14 12 12 13 11 10 9 12 9
13 14 14 16 17 10 9 10 10 15 17 15 15 13 16 14 13 9 11 10 11 15 13 14 15 13 11 13 10 6 6 6
13 13 12 16 15 20 19 18 19 19 17 13 13 13 13 14 16 19 31 26 25 23 20 18 12 21 20 11 12 6 6 7
13 11 11 13 17 20 18 17 19 18 18 15 14 15 14 15 15 17 20 23 33 29 24 20 20 17 19 13 8 1 2 2
9 10 12 14 17 16 16 18 20 19 18 24 14 14 14 15 16 16 16 17 17 15 18 16 17 18 9 6 5 5 10 7
10 10 12 14 16 15 15 18 20 19 16 14 14 14 14 17 15 16 15 17 16 15 13 12 9 5 2 2 2 8 8 8
10 10 12 14 15 13 14 18 21 18 17 27 21 15 16 16 15 16 16 16 15 13 11 8 5 5 5 8 8 8 8 8
12 13 13 15 15 14 15 17 20 15 14 16 25 17 16 16 16 15 14 13 13 11 9 7 6 10 10 9 8 7 7 8
14 16 14 13 15 16 17 17 17 17 16 16 17 18 16 16 14 12 12 13 12 10 7 6 12 10 9 10 9 9 9 9
Wind_Direction
314 311 300 308 313 320 312 312 309 309 304 307 268 282 225 240 265 270 270 272 238 215 233 227 107 113 98 95 158 141 146 143
308 309 305 313 323 307 299 298 299 296 296 294 286 278 241 229 252 263 263 260 271 233 128 112 106 98 96 93 84 32 76 81
308 298 309 321 311 299 293 289 291 295 292 289 292 267 242 235 270 271 269 260 255 132 126 126 130 122 124 123 116 115 102 54
300 310 304 303 298 295 290 288 287 289 291 285 275 281 250 238 257 265 264 262 261 136 135 129 120 112 127 139 140 127 136 125
303 288 304 298 293 291 288 281 279 273 278 275 271 282 236 240 252 256 254 253 207 133 118 117 104 110 101 106 113 119 119 119
306 308 299 289 286 283 282 283 281 280 263 266 265 266 247 230 245 251 199 126 96 102 105 106 110 112 115 114 110 104 102 105
298 293 288 287 280 285 280 282 286 282 256 267 250 257 248 232 248 227 106 107 92 93 100 107 112 112 120 119 114 114 114 120
293 288 284 284 295 279 279 278 274 269 264 265 246 253 245 226 133 109 106 106 100 97 97 103 111 115 109 117 120 119 117 118
293 294 295 284 291 286 278 274 264 266 257 255 266 253 215 111 111 116 114 111 106 104 102 97 100 104 93 82 86 101 107 110
304 296 290 289 283 278 268 261 262 263 250 240 253 127 114 114 113 113 112 116 109 109 101 88 74 89 74 84 70 74 66 101
302 292 291 287 280 262 257 256 248 249 219 217 122 110 110 118 120 118 112 112 113 110 104 98 96 82 81 81 71 67 81 99
304 300 289 283 272 257 236 231 221 247 132 105 103 98 95 97 98 106 115 117 114 112 112 108 103 94 87 84 80 98 95 108
304 297 306 314 297 257 198 164 127 104 100 102 99 99 98 91 75 78 96 91 111 120 117 115 116 107 106 116 124 148 147 147
327 333 350 341 19 94 105 105 104 102 97 95 101 98 95 93 91 82 66 75 81 89 96 104 96 109 125 133 117 83 113 144
340 9 10 29 54 73 87 96 98 98 100 100 96 96 98 100 98 99 100 78 75 73 81 90 94 102 96 93 92 110 168 27
14 32 44 57 65 71 88 95 96 97 96 96 96 99 102 104 104 105 106 104 104 96 76 93 97 94 110 150 182 211 80 77
25 45 57 68 73 75 86 94 94 95 97 97 99 99 101 102 101 101 100 102 101 102 103 93 80 70 174 238 175 88 93 90
43 52 57 65 69 75 88 95 94 91 90 96 97 97 100 99 99 101 103 101 102 106 113 130 169 211 117 90 86 84 87 89
58 65 72 76 80 80 86 91 95 95 95 96 104 96 96 96 95 99 105 109 112 122 136 163 163 101 99 98 102 95 83 72
72 71 66 70 79 86 89 93 97 99 98 99 100 101 104 104 113 123 122 116 117 123 122 94 83 94 95 93 87 85 84 80